Погода в Волочаевке-1

Россия / Еврейская автономная область     48°33′46″N   134°29′00″E
темп.,
°C
ветер,
м/с
пор.,
м/с
влажн.,
%
обл.,
%
осадки,
мм/ч
давл.,
гПа
погр.,
м
10 мая, пн
пн1001:00+5св71378100 0.0 1007807
04:00+5св61379100 0.0 1008804
07:00+5св5127393 0.0 1010867
10:00+8св695678 0.0 10111114
13:00+12св564773 0.0 10101550
16:00+13ссв3446100 0.0 10101755
19:00+10сз2370100 0.1 1012194
22:00+8в3768100 0.3 1014373
11 мая, вт
вт1101:00+5всв287588 0.0 1015376
04:00+4всв3108099 0.0 1015386
07:00+5всв3873100 0.0 1017444
10:00+9св345297 0.0 1018967
13:00+13ссз334982 0.0 10171540
16:00+12сз3356100 0.0 10171217
19:00+12ссв226136 0.0 1017406
22:00+8в11735 0.0 101810
12 мая, ср
ср1201:00+7юв2278100 0.0 101812
04:00+6юв3378100 0.0 101627
07:00+8ююв2671100 0.0 1016169
10:00+14ююв5851100 0.0 10131016
13:00+17ю6945100 0.0 10111769
16:00+13ююз81369100 0.2 10091410
19:00+10ю81688100 4.9 10081249
22:00+10ю9158892 6.1 1008742
13 мая, чт
чт1301:00+10ю91588100 0.3 1007735
04:00+9ю91587100 0.8 1006809
07:00+9ююз7138794 0.2 1006770
10:00+13зюз7106459 0.2 10071330
13:00+18з913445 0.0 10071888
16:00+20з915305 0.0 10063395
19:00+19з36424 0.0 1007169
22:00+12ююз3367100 0.0 100936
14 мая, пт
пт1401:00+11ю126963 0.0 100912
04:00+9ю4880100 0.0 1009125
07:00+11ююз487586 0.0 1009204
10:00+18ююз46505 0.0 1009655
13:00+23ююз683697 0.0 10061683
16:00+22ю71042100 0.0 10051947
19:00+16ююз71362100 0.0 1004987
22:00+13ю71379100 0.1 1003763